Voltar ao catálogo

METEOR 1-10

AtivoMeteoPO
NORAD 5731·PAYLOAD·🇷🇺 Russia

Lançado Dec 29, 1971 de Plesetsk Cosmodrome

Loading…

Próximas Passagens (próximas 24 horas)

TLE

AtualizadoSource: Space-Track

Época: Sep 14, 2026, 01:38 UTC

1 05731U 71120A   26257.06807067  .00000167  00000-0  84261-4 0  9992
2 05731  81.2573 293.7629 0023886 161.7337 198.4699 14.11897020808653

Acompanhe METEOR 1-10 em tempo real com AllMySat

Download on the App Store